Precipitable_Water
0.30 0.23 0.19 0.21 0.24 0.25 0.25 0.25 0.24 0.29 0.34 0.32 0.31 0.31 0.34 0.39 0.39 0.37 0.38 0.40 0.41 0.43 0.48 0.51 0.54 0.63 0.71 0.74 0.73 0.74 0.76 0.76 0.78 0.77 0.75 0.75 0.73 0.74 0.76 0.76 0.75 0.70 0.63 0.60
0.28 0.20 0.26 0.29 0.29 0.28 0.26 0.24 0.24 0.31 0.35 0.34 0.32 0.30 0.34 0.37 0.38 0.38 0.38 0.39 0.40 0.42 0.44 0.49 0.53 0.61 0.69 0.73 0.76 0.75 0.77 0.78 0.79 0.79 0.77 0.74 0.71 0.69 0.69 0.68 0.62 0.55 0.50 0.47
0.22 0.25 0.30 0.29 0.28 0.28 0.28 0.27 0.29 0.29 0.34 0.35 0.32 0.27 0.31 0.36 0.38 0.39 0.40 0.41 0.42 0.42 0.44 0.48 0.52 0.60 0.69 0.72 0.75 0.76 0.75 0.75 0.75 0.76 0.74 0.70 0.68 0.65 0.60 0.52 0.45 0.42 0.41 0.38
0.28 0.32 0.29 0.28 0.27 0.30 0.25 0.34 0.33 0.31 0.30 0.23 0.34 0.20 0.29 0.34 0.36 0.39 0.40 0.40 0.41 0.44 0.48 0.50 0.52 0.59 0.67 0.72 0.75 0.74 0.73 0.73 0.74 0.73 0.71 0.69 0.63 0.53 0.45 0.41 0.40 0.37 0.35 0.33
0.24 0.28 0.27 0.26 0.27 0.34 0.30 0.37 0.34 0.33 0.30 0.30 0.30 0.26 0.26 0.35 0.34 0.39 0.43 0.44 0.45 0.47 0.49 0.52 0.55 0.60 0.66 0.71 0.71 0.72 0.72 0.72 0.72 0.72 0.70 0.63 0.52 0.43 0.40 0.38 0.35 0.34 0.32 0.31
0.30 0.38 0.34 0.31 0.34 0.37 0.40 0.35 0.35 0.36 0.33 0.24 0.29 0.29 0.26 0.31 0.34 0.38 0.45 0.48 0.49 0.51 0.52 0.54 0.57 0.59 0.62 0.68 0.71 0.69 0.69 0.69 0.68 0.64 0.59 0.50 0.42 0.38 0.35 0.34 0.33 0.32 0.31 0.30
0.31 0.31 0.37 0.39 0.33 0.39 0.38 0.32 0.25 0.24 0.25 0.21 0.34 0.30 0.28 0.37 0.40 0.43 0.45 0.49 0.51 0.53 0.53 0.54 0.55 0.56 0.58 0.62 0.65 0.65 0.64 0.60 0.58 0.55 0.49 0.44 0.39 0.35 0.33 0.32 0.31 0.31 0.31 0.31
0.26 0.25 0.36 0.42 0.35 0.31 0.34 0.33 0.28 0.23 0.24 0.26 0.37 0.25 0.29 0.43 0.48 0.49 0.50 0.53 0.53 0.53 0.54 0.54 0.55 0.56 0.56 0.59 0.60 0.60 0.58 0.54 0.52 0.49 0.45 0.41 0.37 0.35 0.33 0.33 0.33 0.33 0.32 0.30
0.30 0.30 0.43 0.44 0.46 0.44 0.40 0.37 0.47 0.39 0.39 0.31 0.33 0.35 0.40 0.44 0.45 0.47 0.48 0.52 0.53 0.54 0.54 0.53 0.54 0.54 0.55 0.57 0.58 0.56 0.53 0.50 0.47 0.45 0.42 0.39 0.37 0.36 0.35 0.36 0.35 0.34 0.32 0.31
0.39 0.32 0.43 0.47 0.53 0.53 0.48 0.51 0.39 0.41 0.29 0.25 0.28 0.29 0.29 0.36 0.40 0.45 0.47 0.50 0.53 0.54 0.54 0.53 0.54 0.53 0.55 0.56 0.54 0.52 0.49 0.45 0.45 0.43 0.40 0.39 0.38 0.37 0.37 0.37 0.35 0.34 0.33 0.32
0.45 0.41 0.40 0.48 0.44 0.44 0.46 0.44 0.46 0.46 0.40 0.29 0.23 0.24 0.38 0.40 0.44 0.46 0.48 0.51 0.52 0.53 0.53 0.53 0.53 0.52 0.53 0.52 0.50 0.48 0.45 0.44 0.44 0.42 0.41 0.40 0.39 0.40 0.39 0.37 0.36 0.34 0.34 0.34
0.49 0.47 0.39 0.41 0.52 0.55 0.52 0.46 0.46 0.37 0.34 0.37 0.33 0.23 0.43 0.44 0.47 0.49 0.50 0.52 0.54 0.55 0.55 0.54 0.52 0.52 0.50 0.49 0.48 0.46 0.46 0.46 0.45 0.45 0.43 0.42 0.41 0.40 0.39 0.38 0.37 0.37 0.36 0.35
0.54 0.47 0.39 0.41 0.45 0.50 0.46 0.50 0.49 0.48 0.45 0.33 0.31 0.24 0.47 0.48 0.49 0.51 0.52 0.54 0.55 0.56 0.55 0.54 0.53 0.52 0.50 0.49 0.48 0.47 0.47 0.47 0.47 0.45 0.44 0.43 0.42 0.41 0.41 0.41 0.40 0.39 0.37 0.36
0.59 0.50 0.42 0.33 0.39 0.48 0.44 0.48 0.51 0.48 0.37 0.36 0.32 0.34 0.41 0.45 0.47 0.51 0.53 0.55 0.55 0.56 0.56 0.54 0.54 0.53 0.52 0.51 0.48 0.48 0.48 0.50 0.49 0.48 0.45 0.44 0.45 0.44 0.43 0.44 0.43 0.41 0.39 0.38
0.58 0.46 0.49 0.47 0.50 0.52 0.51 0.48 0.49 0.44 0.40 0.40 0.32 0.38 0.42 0.48 0.51 0.54 0.57 0.57 0.57 0.57 0.56 0.57 0.57 0.56 0.55 0.53 0.51 0.49 0.49 0.49 0.49 0.49 0.47 0.47 0.47 0.46 0.46 0.46 0.44 0.42 0.40 0.38
0.61 0.46 0.53 0.46 0.51 0.53 0.50 0.52 0.48 0.48 0.47 0.46 0.44 0.38 0.51 0.56 0.58 0.56 0.57 0.57 0.57 0.58 0.59 0.58 0.59 0.59 0.58 0.56 0.53 0.51 0.50 0.51 0.50 0.50 0.49 0.48 0.48 0.48 0.48 0.47 0.45 0.42 0.40 0.37
0.55 0.51 0.48 0.38 0.50 0.51 0.43 0.39 0.49 0.50 0.50 0.47 0.39 0.38 0.54 0.54 0.55 0.56 0.58 0.59 0.59 0.60 0.60 0.60 0.60 0.60 0.59 0.57 0.55 0.55 0.53 0.54 0.53 0.52 0.51 0.49 0.49 0.49 0.49 0.47 0.44 0.42 0.40 0.36
0.54 0.52 0.51 0.39 0.47 0.31 0.37 0.52 0.53 0.52 0.50 0.53 0.51 0.48 0.58 0.58 0.60 0.60 0.61 0.60 0.60 0.61 0.61 0.63 0.63 0.63 0.61 0.58 0.58 0.58 0.56 0.57 0.56 0.55 0.51 0.50 0.49 0.49 0.49 0.46 0.44 0.42 0.38 0.34
0.65 0.55 0.44 0.38 0.38 0.43 0.41 0.43 0.48 0.48 0.41 0.55 0.54 0.54 0.59 0.61 0.61 0.55 0.62 0.62 0.61 0.62 0.63 0.64 0.66 0.64 0.63 0.61 0.60 0.60 0.61 0.63 0.62 0.57 0.54 0.51 0.49 0.49 0.48 0.45 0.42 0.38 0.35 0.30
0.64 0.63 0.49 0.42 0.34 0.30 0.36 0.47 0.56 0.60 0.36 0.54 0.57 0.54 0.57 0.61 0.49 0.48 0.62 0.64 0.63 0.64 0.65 0.64 0.67 0.69 0.70 0.70 0.70 0.71 0.72 0.66 0.59 0.53 0.51 0.50 0.50 0.49 0.46 0.42 0.38 0.34 0.29 0.27
0.46 0.49 0.42 0.41 0.38 0.43 0.53 0.53 0.57 0.40 0.35 0.53 0.56 0.57 0.58 0.54 0.57 0.61 0.64 0.64 0.65 0.66 0.69 0.72 0.74 0.73 0.75 0.78 0.77 0.69 0.60 0.53 0.53 0.51 0.50 0.48 0.45 0.42 0.37 0.33 0.30 0.28 0.26 0.24
0.43 0.41 0.40 0.42 0.37 0.33 0.60 0.55 0.46 0.51 0.54 0.55 0.56 0.57 0.56 0.58 0.60 0.61 0.63 0.64 0.66 0.67 0.69 0.72 0.72 0.72 0.71 0.65 0.58 0.53 0.50 0.50 0.47 0.43 0.38 0.35 0.33 0.30 0.28 0.27 0.25 0.24 0.22 0.20
0.39 0.48 0.43 0.45 0.43 0.55 0.57 0.57 0.60 0.59 0.54 0.55 0.56 0.57 0.58 0.58 0.58 0.61 0.61 0.62 0.63 0.65 0.64 0.62 0.57 0.53 0.53 0.52 0.47 0.42 0.38 0.36 0.33 0.30 0.27 0.27 0.27 0.26 0.24 0.23 0.21 0.20 0.20 0.19
0.48 0.54 0.46 0.45 0.47 0.48 0.49 0.51 0.53 0.51 0.52 0.56 0.60 0.61 0.57 0.55 0.56 0.55 0.55 0.55 0.55 0.53 0.50 0.49 0.45 0.39 0.33 0.31 0.30 0.28 0.28 0.27 0.26 0.24 0.23 0.23 0.21 0.21 0.21 0.21 0.20 0.20 0.19 0.19
0.44 0.48 0.44 0.42 0.44 0.49 0.50 0.50 0.53 0.57 0.58 0.59 0.55 0.54 0.51 0.49 0.47 0.47 0.45 0.44 0.42 0.38 0.34 0.31 0.28 0.26 0.25 0.26 0.25 0.25 0.24 0.23 0.21 0.21 0.21 0.20 0.20 0.20 0.19 0.20 0.20 0.20 0.21 0.21
0.44 0.41 0.37 0.34 0.43 0.45 0.49 0.53 0.58 0.60 0.57 0.52 0.47 0.46 0.45 0.44 0.41 0.38 0.36 0.33 0.30 0.28 0.26 0.25 0.24 0.23 0.23 0.23 0.22 0.21 0.21 0.21 0.19 0.18 0.18 0.18 0.18 0.19 0.19 0.19 0.19 0.22 0.22 0.22
Wind_Speed
20 19 19 20 20 18 18 18 18 18 17 17 21 22 22 22 22 21 22 22 22 22 21 21 21 20 19 18 17 17 17 16 16 16 15 15 15 14 13 12 11 11 10 9
19 23 22 20 21 21 21 21 23 21 21 21 24 26 25 23 24 25 25 25 24 23 23 24 23 22 21 20 19 18 18 17 17 16 16 15 15 14 14 13 12 11 10 10
23 22 19 22 22 20 21 21 21 23 21 24 25 27 26 26 27 26 27 27 26 26 26 26 26 24 23 22 20 20 19 19 18 17 17 15 15 14 14 14 12 12 11 12
28 28 23 21 23 21 24 22 23 23 22 23 20 26 24 22 24 24 28 28 28 27 26 27 27 26 25 23 22 21 21 20 19 19 18 18 17 16 15 14 13 13 14 15
28 25 25 29 26 23 25 21 21 22 23 23 24 24 23 21 24 27 27 27 28 28 27 27 27 25 25 24 23 23 22 21 21 20 19 17 16 15 15 15 15 16 16 18
30 27 26 26 23 23 22 19 19 20 21 25 26 25 24 23 23 22 22 23 25 26 26 26 25 25 25 25 24 24 23 22 21 20 19 18 17 17 17 17 18 18 19 20
29 30 28 26 23 23 23 19 20 21 21 27 23 26 33 23 22 22 22 23 23 24 24 25 25 26 26 26 26 25 24 22 22 21 20 20 19 19 19 20 20 20 21 23
28 29 30 29 28 24 24 23 20 20 20 22 20 24 23 24 25 25 25 23 22 22 24 25 26 26 26 26 26 25 25 23 22 22 22 21 21 21 21 21 22 23 24 26
24 26 22 23 24 23 23 26 22 21 20 21 23 26 28 27 26 23 21 21 22 23 23 23 24 25 26 26 27 26 25 24 24 23 22 22 22 23 23 24 25 25 26 27
26 22 22 23 21 22 23 21 18 20 20 23 24 25 26 23 26 23 21 18 20 22 23 24 25 26 27 27 26 26 26 25 25 24 24 24 25 25 26 26 27 28 28 29
28 25 22 22 26 25 23 24 22 20 22 22 26 26 22 23 23 20 20 19 19 22 23 24 25 26 27 27 27 27 27 27 26 26 27 27 27 28 28 28 29 29 30 31
32 24 26 28 25 28 27 28 26 23 24 26 26 38 24 22 22 21 22 22 21 22 24 25 26 26 27 28 29 29 29 29 29 29 29 29 29 30 30 31 31 32 33 34
29 28 24 27 28 28 29 29 33 27 25 33 26 36 21 21 22 24 25 25 25 25 24 26 27 28 30 31 31 31 31 31 31 31 32 32 32 33 33 33 34 34 35 36
31 30 35 38 30 27 30 32 33 34 32 31 40 41 29 27 26 24 24 24 24 26 27 28 28 30 32 33 34 34 34 33 33 34 34 34 35 35 35 35 36 37 37 38
34 35 35 40 31 29 30 32 35 38 44 34 44 41 37 34 31 30 28 27 27 29 30 31 31 33 34 35 36 37 36 36 36 36 37 37 37 37 37 37 38 38 39 39
34 36 35 40 38 36 34 36 42 43 43 44 46 48 30 32 32 31 32 32 33 34 35 35 34 34 35 36 37 37 38 38 38 38 39 39 39 39 39 39 39 40 40 41
35 35 31 40 35 34 35 51 41 41 43 41 44 49 35 39 38 35 35 35 35 35 34 35 35 35 36 37 37 37 38 39 40 40 40 41 41 41 41 40 40 41 42 43
34 38 34 37 27 33 41 36 43 45 47 44 46 48 38 40 40 38 36 36 36 35 34 34 34 35 35 36 37 37 38 39 41 41 41 41 41 41 41 41 42 43 44 44
42 38 33 33 37 37 40 35 32 33 45 42 44 44 41 35 33 37 34 34 35 36 36 36 35 34 34 36 37 37 38 39 40 40 40 41 41 41 41 43 43 44 44 45
44 47 43 33 34 37 37 33 34 30 42 33 37 40 38 30 35 39 33 33 33 32 33 33 33 33 34 35 36 38 39 38 38 38 39 39 40 41 42 43 44 44 44 45
36 40 44 42 38 34 34 31 29 29 35 30 29 31 29 34 36 32 30 29 30 30 30 31 31 33 34 35 36 36 35 36 36 36 37 38 39 41 42 42 43 43 44 44
31 30 31 34 32 34 32 30 32 31 29 30 30 29 28 28 28 28 27 27 27 27 28 29 30 30 30 30 30 31 33 33 34 35 36 37 39 40 41 42 42 42 43 43
26 27 26 28 27 27 29 28 29 29 29 28 28 27 26 26 26 25 25 25 25 26 26 26 25 25 26 28 29 30 31 32 33 34 36 37 38 39 40 40 41 41 42 42
28 27 25 24 27 26 26 27 27 26 26 26 26 26 25 24 24 23 23 23 24 24 24 25 25 25 26 27 28 29 30 32 34 35 36 37 37 38 38 39 40 41 41 41
27 25 27 27 28 27 28 29 28 26 25 25 24 24 23 22 22 22 22 23 23 23 24 25 25 26 27 28 30 31 32 33 34 35 36 36 37 38 38 39 40 40 40 41
28 27 26 26 26 26 26 28 29 28 26 25 24 23 23 24 24 24 24 24 24 25 25 26 27 28 29 30 31 32 33 33 34 34 35 37 38 39 39 39 39 40 41 42
Wind_Direction
249 251 252 251 254 262 267 269 272 275 275 267 264 268 268 263 263 260 256 253 252 251 251 252 254 255 257 257 253 248 239 233 232 234 237 241 245 243 244 246 250 259 267 276
252 254 256 257 258 260 265 270 273 275 271 268 273 269 269 265 264 258 254 254 252 253 251 252 254 255 255 254 250 243 236 233 238 240 241 243 243 244 241 244 251 257 263 275
248 254 257 253 259 259 263 263 270 269 274 273 277 273 268 267 264 262 260 259 255 250 250 251 251 254 252 250 245 238 234 238 239 240 241 240 240 241 241 244 248 256 265 279
254 253 257 257 258 256 265 266 267 270 272 272 270 278 269 268 268 265 262 258 254 251 251 249 249 250 247 245 241 237 236 237 240 240 240 240 241 239 240 241 248 260 272 283
254 253 251 254 257 255 265 267 267 267 267 272 270 278 275 265 268 270 267 261 254 249 247 246 245 246 243 241 239 237 236 239 241 241 240 237 235 234 238 247 256 266 277 285
253 257 255 256 261 255 256 266 272 272 270 267 263 264 269 270 270 274 274 264 255 248 245 244 243 241 239 237 237 236 236 239 238 236 234 233 233 238 245 253 261 270 278 285
255 254 257 255 258 260 254 257 266 270 267 267 268 264 267 274 272 275 275 266 255 245 240 239 237 238 237 235 234 233 234 235 233 233 235 237 240 246 252 258 264 270 278 284
248 257 245 251 249 250 247 243 248 261 264 272 271 264 272 268 273 280 278 265 252 245 240 239 238 236 234 232 231 232 232 232 233 235 237 241 246 251 256 261 267 273 279 285
247 256 253 252 247 236 247 244 251 264 268 274 267 273 277 274 278 280 277 260 246 241 240 239 237 234 232 230 231 231 230 232 233 235 239 244 250 255 260 265 270 276 280 284
246 255 256 251 243 244 242 247 251 252 262 267 272 273 270 276 274 274 272 261 249 243 239 239 236 234 231 230 231 231 232 231 235 239 244 249 255 260 264 267 272 276 281 285
240 244 254 242 243 235 242 247 247 248 250 265 277 272 272 271 275 269 265 255 248 242 239 238 235 232 230 231 232 232 233 235 239 244 250 254 258 262 266 269 273 277 281 285
236 243 243 245 253 250 247 244 240 247 257 265 268 269 270 276 280 272 266 259 253 245 242 240 235 232 232 234 234 234 236 240 245 249 254 257 261 264 267 270 274 277 281 284
232 239 246 257 255 251 245 246 244 254 262 257 262 269 277 275 273 274 267 262 256 249 243 239 236 235 235 237 236 238 240 244 249 253 256 259 262 264 268 271 274 277 280 283
232 242 241 247 255 248 246 244 245 244 255 259 256 266 267 272 272 270 267 263 255 249 246 242 242 241 240 241 240 242 244 248 252 255 257 260 263 265 268 272 275 278 280 283
236 244 246 249 252 248 249 245 242 244 251 253 265 261 264 265 267 266 267 262 257 252 248 245 246 246 245 246 245 245 247 251 255 258 259 262 263 266 269 272 275 278 280 283
241 249 246 251 250 249 251 250 249 249 254 257 262 265 265 269 266 263 262 259 257 255 252 248 250 249 250 248 246 246 250 253 257 260 261 262 264 266 269 272 274 277 280 283
239 243 246 252 248 253 255 250 250 254 254 256 256 262 266 264 264 264 262 258 256 254 252 249 251 252 252 247 245 249 252 256 258 261 262 262 263 265 268 271 274 277 279 283
242 240 246 253 248 247 256 258 251 251 255 257 261 265 264 264 264 264 262 257 256 253 251 251 253 254 251 247 250 252 255 258 259 262 262 261 262 265 267 270 274 276 279 281
236 238 246 249 250 259 263 258 251 249 259 257 258 263 263 262 265 263 261 261 258 256 255 254 254 252 250 251 251 254 257 260 261 260 261 260 262 265 267 271 274 277 278 281
237 240 242 246 251 254 264 259 257 257 263 258 256 261 259 256 259 264 261 258 256 255 254 251 253 254 252 253 254 257 261 259 260 259 260 261 263 266 270 272 275 277 279 281
238 240 241 244 250 256 255 258 256 251 267 268 265 262 259 258 260 264 258 259 257 255 252 253 254 256 257 257 257 258 257 259 260 261 262 264 266 269 272 274 276 278 279 281
239 239 243 243 249 251 251 254 251 261 265 265 267 266 261 261 264 262 258 255 253 253 253 256 258 258 257 255 255 258 258 260 262 264 266 268 270 272 274 275 277 278 279 281
242 241 241 241 248 252 249 252 253 260 262 264 265 265 261 262 261 259 257 254 253 254 255 256 254 255 257 257 258 259 261 263 265 267 269 271 273 274 275 277 278 279 280 281
243 243 246 249 251 254 254 255 256 257 259 263 264 263 260 260 257 256 254 253 253 254 255 256 256 257 259 259 261 263 265 268 269 270 272 273 274 275 277 278 279 279 280 281
244 241 245 255 256 258 256 254 256 258 260 263 262 261 258 255 255 253 253 253 254 254 255 255 256 258 261 262 265 268 269 270 271 273 273 274 275 276 278 279 280 281 282 282
243 245 247 254 252 256 258 253 254 255 254 254 259 260 259 258 257 257 254 254 254 255 257 260 262 264 266 267 268 269 271 271 272 274 275 276 277 278 279 279 281 282 283 284